Theta_e
326 317 312 315 310 312 307 303 296 294 292 288 284 290 292 294 296 296 297 298 298 300 300 304 301 302 302 302 305 304 309 307 304 300 295 306 329 335 335 338 340 339 338 337 336 336 335 341 342 342 339 339 342 344 345 344 343 342 340 340 340 340 339 339 341 342 342 343 343 341 337 338 340 341 341 341 341 340 340 339 339 339 339 339 341 344 343 344 344 344 344 345 344 345 344 344 344
321 314 312 313 311 307 303 298 291 286 287 285 288 287 289 291 296 294 296 295 297 304 307 313 314 314 313 313 313 311 310 316 305 315 322 331 336 336 339 340 341 339 337 335 335 333 331 336 343 342 339 339 339 343 345 343 342 343 342 340 339 339 339 344 344 344 346 346 345 341 339 337 337 339 340 339 340 340 340 341 341 340 341 340 340 340 343 344 343 344 344 344 344 344 343 343 343
317 314 314 312 310 303 299 297 296 283 284 284 282 287 290 292 294 295 296 295 301 308 310 311 309 307 308 307 303 302 302 322 322 323 328 335 330 333 339 341 341 339 336 334 334 332 332 337 341 341 339 339 338 341 343 343 344 344 340 339 340 339 340 342 343 344 343 344 343 341 339 338 339 339 339 340 339 339 337 337 338 338 339 339 338 341 344 344 344 344 343 343 344 343 343 343 343
314 316 311 307 308 300 294 290 289 287 290 282 282 286 290 292 294 295 295 296 307 308 303 303 308 308 308 304 305 311 313 319 324 327 326 330 331 337 340 341 340 338 335 334 333 331 332 338 341 342 340 338 340 342 344 344 343 342 339 338 338 340 343 342 343 343 342 341 341 341 339 337 337 334 335 336 336 336 338 338 337 338 338 337 338 340 342 343 343 343 343 343 344 344 343 342 342
316 317 309 303 300 301 292 290 286 285 287 284 289 287 289 290 295 293 299 298 304 301 298 304 307 311 311 310 308 305 309 321 327 329 329 331 337 340 340 341 339 336 334 334 333 332 332 339 341 341 340 342 345 346 345 345 342 341 339 339 339 339 340 341 342 342 341 340 340 341 340 339 340 340 339 337 337 338 338 338 339 339 338 338 338 339 343 343 343 342 342 343 343 343 342 342 342
312 311 309 306 303 301 296 291 291 288 288 287 288 290 290 292 296 295 299 299 302 297 298 302 305 306 310 313 313 312 317 315 323 325 331 332 338 341 340 340 338 336 334 333 332 330 330 338 340 340 340 343 345 345 344 345 344 341 340 338 338 339 340 339 339 340 339 342 342 339 337 341 344 343 342 342 341 341 341 340 340 339 339 338 337 338 339 341 342 342 342 341 342 342 341 341 340
314 304 302 302 298 298 292 286 285 286 291 289 290 290 293 293 297 298 298 299 299 302 300 307 307 307 307 308 315 318 317 321 324 322 331 336 340 340 341 340 338 336 335 333 331 330 330 338 340 340 343 344 344 344 345 345 346 341 340 339 338 337 338 339 337 338 337 337 340 339 338 339 339 340 341 341 342 341 341 341 341 341 340 340 339 339 339 342 342 341 342 342 342 342 341 340 341
315 308 301 294 291 291 288 286 287 286 292 289 290 294 293 296 296 297 297 297 298 301 306 307 305 302 304 311 307 317 318 320 324 329 336 338 339 340 340 339 337 336 336 335 331 330 339 337 341 342 342 341 344 344 345 345 346 344 340 340 339 336 335 337 338 339 341 341 341 339 337 338 338 338 338 337 338 338 338 338 338 338 337 338 338 338 341 341 342 341 341 341 342 341 340 340 339
309 307 301 296 290 287 283 288 288 287 289 289 290 293 304 297 297 297 296 296 298 299 305 306 302 298 299 308 306 313 316 322 329 334 337 338 338 339 339 338 335 336 336 336 332 331 330 338 340 342 340 342 346 345 345 345 345 344 341 341 339 336 335 337 338 341 341 340 339 338 337 336 337 337 337 338 337 338 337 337 338 338 338 338 339 338 338 339 341 341 341 341 340 340 339 339 339
305 304 296 293 289 291 283 283 289 291 290 290 293 298 297 296 297 296 296 297 300 302 305 300 301 298 302 309 307 315 318 325 333 334 337 338 339 339 338 338 337 335 336 336 332 332 332 341 337 338 339 341 344 346 345 344 345 344 343 341 338 336 337 337 337 338 338 337 336 336 336 336 337 337 337 336 337 337 337 337 337 337 337 337 337 337 337 338 339 340 340 340 339 338 338 338 338
301 302 297 294 285 285 286 282 284 288 290 290 291 293 297 296 297 295 295 298 298 302 300 304 306 305 309 309 307 312 318 326 332 331 336 338 338 337 337 338 337 336 335 336 335 333 333 333 338 336 338 339 341 345 345 344 344 344 342 341 339 337 337 337 336 336 336 336 336 337 337 337 337 336 336 336 336 336 337 336 336 336 336 336 336 336 336 337 339 339 339 339 338 337 337 336 336
299 297 296 285 285 285 283 286 285 288 289 289 298 297 295 297 295 296 296 299 297 298 300 304 304 308 306 307 307 314 319 328 330 334 336 337 337 338 338 338 337 335 336 337 337 337 333 330 331 338 335 335 338 340 342 343 344 343 341 339 338 337 337 336 336 336 335 339 340 338 337 337 337 337 336 336 336 336 336 336 336 335 335 336 336 336 336 337 338 338 338 338 337 336 336 335 335
299 297 293 290 287 288 286 286 288 291 288 288 296 297 296 297 297 294 295 297 296 298 299 301 310 306 302 305 307 310 321 328 328 335 335 336 336 337 338 337 336 334 336 337 337 337 336 331 330 332 332 333 333 333 335 337 341 342 341 340 340 340 339 337 336 335 338 341 343 342 340 339 338 336 336 336 338 336 336 335 336 335 336 336 336 336 336 336 337 337 338 337 336 335 335 335 335
301 299 297 295 287 286 286 287 284 289 287 291 291 294 297 297 295 294 296 297 295 297 300 299 311 309 306 305 306 310 318 326 325 333 334 334 335 337 337 336 335 335 337 337 336 336 336 332 330 330 330 330 329 330 332 335 338 340 340 339 339 339 339 339 340 342 341 341 340 341 340 340 339 338 338 337 337 337 336 337 337 336 335 335 335 334 335 336 336 336 336 337 336 335 334 334 333
304 300 295 291 288 287 286 289 289 286 288 289 295 294 295 297 294 294 300 297 297 297 303 307 310 302 297 304 303 313 320 324 327 331 331 332 335 336 336 336 334 334 335 336 335 336 336 335 334 332 330 329 328 327 327 331 333 336 337 337 337 337 338 338 338 337 337 339 338 336 335 335 335 336 336 336 336 335 334 331 336 336 335 334 334 333 334 335 335 335 336 336 335 334 334 334 333
303 299 295 295 291 288 289 288 285 287 289 289 293 293 297 296 294 297 297 298 297 300 304 309 304 301 301 303 304 315 322 323 328 329 331 333 334 335 335 334 333 333 333 334 334 335 336 336 336 334 333 329 327 327 327 327 330 331 334 335 335 335 335 335 334 332 330 330 331 330 328 327 327 327 327 329 331 334 331 328 332 334 334 334 333 333 334 334 334 335 335 335 333 332 331 330 330
303 301 295 288 290 288 290 289 288 290 288 288 289 293 298 296 294 297 295 297 301 302 305 310 303 313 307 303 312 315 323 324 326 329 331 331 332 332 333 332 332 332 332 332 332 333 336 335 335 335 334 330 329 329 328 330 331 329 330 330 332 333 333 332 330 323 322 321 322 322 323 323 323 324 325 324 323 324 324 326 331 335 335 334 333 332 332 332 334 335 335 335 333 328 324 322 321
303 298 291 289 287 288 291 291 289 292 292 293 293 292 296 294 294 298 300 299 300 302 305 309 312 312 314 313 311 318 322 324 327 328 329 329 330 329 330 331 331 329 330 330 332 333 333 334 335 335 334 332 331 331 332 332 332 330 332 330 327 327 326 325 321 320 325 317 319 320 319 322 321 319 321 328 322 322 323 325 329 333 333 333 334 333 332 332 333 334 334 335 332 326 319 313 312
296 292 292 292 289 294 295 291 291 292 292 292 292 291 293 296 295 296 296 294 300 301 301 305 306 309 310 313 318 320 322 324 327 328 328 328 329 328 328 329 330 330 329 330 331 332 332 333 334 334 334 334 333 334 334 334 332 332 332 331 324 324 325 322 320 319 317 316 316 316 318 317 318 318 319 322 321 322 322 324 328 330 331 330 333 332 332 331 332 334 333 331 328 321 314 312 314
297 295 292 289 293 295 295 292 294 292 294 293 293 293 291 293 295 296 296 293 297 298 297 300 303 306 308 312 318 319 322 323 327 328 328 328 329 329 329 328 329 330 330 330 331 332 333 332 333 334 333 335 334 334 334 333 333 333 332 330 324 322 321 321 317 316 316 315 316 316 316 315 317 317 325 326 325 318 319 323 326 326 327 326 326 323 325 327 326 326 325 322 317 314 313 313 312
298 295 290 293 294 295 296 293 292 290 292 294 292 291 292 292 294 296 292 296 296 298 298 301 303 306 310 315 318 319 320 322 325 327 327 328 329 330 330 330 330 331 331 332 332 332 332 332 332 333 333 335 334 334 334 333 333 333 332 331 326 321 319 319 318 317 315 315 315 316 315 315 314 316 318 319 317 316 316 316 317 316 315 315 318 313 315 315 315 314 313 313 311 311 312 311 312
298 295 294 295 293 293 295 292 290 290 289 292 289 294 293 293 294 294 296 295 295 298 301 300 303 308 313 315 317 319 320 321 323 325 327 327 328 329 331 331 332 332 332 331 331 333 332 332 333 333 333 333 334 334 333 332 333 332 331 331 329 323 320 319 318 319 317 315 315 316 316 316 315 317 318 317 316 314 316 316 314 314 313 315 316 315 314 315 314 312 311 312 311 310 308 309 308
295 293 294 293 292 294 295 293 292 290 291 291 291 292 293 294 293 291 295 298 295 293 296 301 304 312 315 319 318 318 319 320 321 323 326 327 328 329 330 331 330 330 331 331 333 333 334 334 334 334 332 332 332 334 333 333 332 332 332 331 330 328 325 320 319 318 318 317 315 314 317 314 314 316 317 316 315 313 315 314 314 313 312 314 315 315 315 314 313 314 312 312 310 310 310 308 308
295 293 294 294 292 294 294 295 290 289 292 292 290 293 294 292 294 292 294 297 294 294 293 297 309 314 316 317 318 319 319 320 321 323 326 327 329 330 330 330 331 332 331 331 332 333 333 333 335 334 332 332 331 333 332 331 331 331 331 330 330 329 327 326 322 320 317 318 316 317 316 317 317 315 315 313 313 314 316 314 313 313 312 313 314 315 315 314 314 313 313 312 311 307 307 309 309
296 297 296 294 292 292 293 291 290 288 289 290 291 293 293 291 293 291 293 296 295 294 305 309 313 314 314 316 318 319 319 320 320 321 321 324 328 330 330 331 331 331 330 331 332 332 333 334 334 334 333 332 332 333 331 331 331 331 331 330 329 328 329 328 327 322 320 319 318 317 315 317 315 317 316 316 313 316 314 313 313 313 312 312 312 314 313 311 312 312 312 311 308 309 307 310 308
298 298 296 295 293 293 293 293 291 290 291 290 293 291 290 290 291 293 296 293 292 300 308 311 312 313 313 316 317 318 318 319 320 319 320 321 324 327 328 329 330 330 330 331 331 331 333 334 334 333 333 333 333 332 331 330 330 330 330 330 330 329 329 330 327 324 322 319 319 318 317 318 318 317 317 315 316 315 314 312 312 313 313 311 313 314 312 312 313 310 310 309 310 311 311 312 308
295 294 294 295 297 293 294 295 293 291 292 289 293 291 292 292 291 293 292 292 296 304 310 310 312 313 314 314 316 317 318 319 319 321 317 315 319 324 327 328 328 329 330 330 331 331 332 333 333 334 334 332 334 332 332 331 331 330 330 331 331 329 330 330 328 326 323 321 321 320 318 318 318 317 317 317 315 315 315 314 314 311 312 313 313 315 311 313 312 312 312 312 311 311 312 310 310
294 293 297 296 296 294 293 293 292 293 294 288 292 291 289 291 292 294 294 291 298 300 307 311 312 311 313 313 315 316 317 319 320 317 319 317 319 322 324 326 327 328 329 329 330 331 331 332 333 334 334 333 333 333 332 332 332 331 331 331 331 331 330 329 328 326 322 322 321 320 319 318 318 318 317 317 317 316 315 315 313 313 315 312 313 313 312 311 312 313 310 311 309 309 311 312 312
294 295 296 294 296 298 294 295 293 292 293 290 290 292 291 291 291 296 292 296 297 298 303 309 310 309 310 311 312 313 316 317 317 319 320 321 322 323 323 325 326 326 329 329 329 328 329 331 332 334 335 333 333 333 333 333 333 332 331 331 331 331 330 329 328 327 324 323 322 321 321 319 318 318 318 318 317 316 315 314 313 313 316 314 313 312 312 314 314 314 315 310 308 309 312 315 314
295 292 290 294 293 295 299 293 293 293 294 288 292 286 284 290 295 293 291 298 297 298 300 306 308 307 308 309 312 313 312 313 315 318 321 321 322 322 322 324 324 325 326 325 325 325 327 329 331 333 334 334 333 334 334 334 334 333 332 332 331 331 330 328 327 327 324 323 323 322 321 320 318 318 318 316 316 316 315 315 314 314 315 314 313 314 317 317 317 315 316 312 313 313 315 317 315
294 293 291 289 290 291 293 294 293 294 293 290 292 286 286 289 293 294 290 298 298 297 298 301 304 306 308 310 312 313 313 315 317 318 319 320 321 322 322 322 323 324 323 323 324 325 324 326 328 331 331 334 332 333 333 333 333 334 332 332 332 331 330 329 328 327 325 323 323 322 321 321 319 319 318 317 316 316 316 316 316 318 317 315 316 317 319 317 315 315 313 313 314 313 314 314 312
293 294 291 287 289 290 291 294 293 293 294 291 292 286 289 293 296 292 289 296 296 296 296 298 301 306 307 308 311 312 314 314 314 315 318 319 320 321 321 322 323 323 324 324 324 324 324 324 325 328 329 332 333 333 333 334 333 333 333 328 331 331 330 329 329 328 326 324 323 323 322 321 320 320 318 317 317 318 319 319 319 320 319 318 318 318 319 318 317 317 317 316 314 316 313 312 307
292 293 289 287 284 286 290 293 291 293 293 294 291 287 286 291 291 288 288 295 297 295 295 295 299 302 304 307 309 311 311 312 312 315 317 318 320 321 321 322 322 323 324 324 324 323 323 323 323 325 327 329 332 332 333 333 333 332 332 331 330 330 330 330 330 328 326 325 324 323 322 322 321 320 320 320 321 320 320 320 321 320 320 320 318 317 318 319 318 316 314 312 314 316 310 309 310
290 289 290 289 286 286 288 290 292 292 292 291 290 288 287 294 291 288 289 292 294 295 296 295 297 299 302 303 305 307 309 311 313 315 316 318 319 320 321 320 322 322 323 323 323 324 324 324 323 323 325 327 330 331 331 332 332 331 330 330 326 329 330 330 330 329 327 326 325 324 323 322 321 322 322 323 323 323 322 322 322 321 320 319 318 318 319 317 316 315 316 315 313 311 311 312 311
289 285 287 288 286 286 286 289 292 291 290 289 289 287 289 293 296 291 289 290 292 294 295 294 293 295 298 300 301 303 306 308 312 315 315 316 317 318 320 320 320 320 322 322 323 323 324 324 323 322 322 324 327 328 329 330 330 329 329 329 328 329 329 329 329 329 329 327 325 325 323 323 323 325 325 324 324 324 324 323 322 321 321 321 318 315 316 316 315 315 317 316 309 309 313 314 312
288 287 287 286 285 286 284 289 290 292 290 287 286 288 290 293 297 295 289 289 290 291 289 290 291 291 292 297 299 300 302 305 310 311 310 313 316 317 319 320 320 320 321 322 321 322 322 323 323 322 321 323 324 326 327 328 328 327 327 326 326 327 329 327 328 329 328 327 326 325 324 325 326 325 326 325 325 325 324 324 324 322 320 319 317 314 313 312 314 313 312 310 309 308 309 312 311
289 289 288 287 286 287 288 288 290 290 291 288 287 287 289 292 296 295 289 288 288 287 288 290 291 292 292 292 294 297 299 301 304 304 307 309 312 316 318 319 320 319 320 320 321 321 322 323 322 322 323 322 322 323 325 327 327 327 327 328 326 328 327 327 327 328 327 326 325 325 325 325 325 326 326 326 326 324 325 325 324 322 322 319 317 317 318 317 315 313 308 307 310 312 312 311 311
288 287 287 288 286 286 289 289 290 290 290 286 285 286 288 289 293 295 289 289 290 289 289 289 291 292 292 292 292 293 297 298 298 298 301 305 308 311 315 317 317 318 319 320 320 321 322 322 322 323 323 322 322 323 324 325 327 328 328 328 328 328 327 326 327 327 327 326 325 324 325 325 324 325 325 327 326 326 326 325 325 325 323 321 320 319 318 314 315 312 310 312 309 312 310 308 311
288 287 285 285 286 287 289 288 289 289 290 288 285 286 287 289 292 294 290 290 291 291 291 293 293 291 291 292 292 293 293 295 296 298 299 302 305 308 312 315 317 319 320 320 321 321 321 322 323 323 323 322 322 323 323 324 325 326 327 325 328 323 322 327 328 327 325 326 325 324 324 324 324 324 325 325 327 327 327 326 325 326 324 321 319 317 315 316 316 312 310 314 315 310 311 309 310
289 288 286 284 287 286 286 288 290 289 288 287 286 283 286 289 291 292 292 291 291 292 290 291 291 292 292 294 294 294 293 294 295 296 297 299 302 306 309 312 315 317 318 319 320 321 322 321 322 323 323 322 323 323 322 325 324 324 324 321 322 325 321 316 320 318 322 323 324 323 323 324 323 324 325 326 327 327 327 326 326 324 323 321 322 320 317 318 317 312 314 315 317 316 310 312 311
290 290 287 286 287 288 287 287 289 288 287 287 286 286 287 288 290 292 291 285 288 290 289 289 289 290 293 293 292 293 294 295 296 297 296 296 298 302 308 311 314 315 317 318 319 321 322 321 322 322 323 323 324 322 322 323 320 316 315 314 314 317 314 313 316 320 322 321 323 322 323 323 324 325 324 325 324 327 327 327 325 323 323 322 321 321 321 321 320 319 317 316 316 316 315 312 309
289 290 290 289 288 288 288 288 288 286 283 284 285 280 279 280 284 288 293 286 287 285 287 290 292 291 291 291 292 294 294 294 295 296 297 296 297 299 302 307 311 314 315 318 319 321 321 322 321 322 323 324 324 323 322 322 321 322 320 321 320 320 322 320 319 322 320 320 322 319 321 323 323 324 323 324 326 325 326 327 326 323 321 319 319 322 322 321 321 319 319 319 317 316 317 314 311
287 288 291 291 290 289 288 287 287 282 281 286 284 282 278 282 285 286 285 283 285 287 285 289 290 290 290 292 293 294 294 295 294 294 293 292 294 295 298 304 309 311 314 316 317 319 320 321 321 322 323 323 323 323 322 320 322 322 322 323 324 323 322 323 317 313 320 316 319 322 323 320 322 323 323 325 326 326 327 326 326 325 323 322 319 322 322 322 320 319 317 317 317 314 314 313 312
282 288 290 292 290 289 288 288 286 283 284 287 283 283 278 279 286 287 284 284 285 286 288 287 289 290 290 291 293 294 295 295 295 295 294 293 293 294 296 299 305 310 313 313 315 317 318 319 320 321 321 320 322 323 322 322 322 322 321 322 321 322 322 321 316 312 311 313 317 319 319 318 318 320 323 323 325 325 324 325 325 324 323 323 320 320 319 318 317 315 314 315 314 314 314 313 311
283 287 290 291 291 289 289 288 284 283 283 282 282 283 280 276 280 282 282 286 287 286 287 288 290 291 291 291 292 293 294 294 293 294 295 294 294 294 296 297 301 306 309 312 314 315 317 318 318 318 320 320 320 320 321 321 321 322 322 322 321 321 320 316 308 308 312 310 315 309 314 315 315 316 320 322 323 324 322 323 323 322 321 320 316 317 317 317 317 315 314 313 313 313 313 312 311
286 287 291 292 291 290 289 286 285 284 281 280 282 281 277 279 278 282 282 284 284 286 287 288 289 291 291 291 291 291 290 291 291 292 294 294 294 294 294 294 295 301 305 307 307 308 312 313 315 316 318 319 319 319 320 321 321 320 322 321 321 320 315 306 309 309 310 308 314 309 311 312 313 314 316 319 320 321 321 320 320 319 318 316 313 315 316 316 315 314 314 314 312 312 311 312 311
289 289 288 287 287 286 283 284 284 283 278 281 283 281 281 277 281 285 284 284 285 287 287 287 287 288 288 287 288 289 290 289 290 290 292 293 291 291 292 295 296 296 299 304 307 310 311 312 315 316 318 319 318 319 319 320 321 321 322 321 321 320 314 312 310 308 307 307 312 308 310 313 313 315 314 315 318 318 319 317 317 316 316 312 313 315 315 315 314 314 313 312 312 311 310 310 309
290 286 283 286 285 285 285 282 283 279 278 280 281 280 280 276 278 282 285 285 282 286 287 288 290 290 288 286 286 287 287 288 288 288 290 290 291 291 291 293 295 297 297 302 306 306 309 312 313 315 315 316 317 318 318 319 320 320 321 321 320 320 316 314 315 313 309 311 310 309 308 310 310 311 312 313 313 314 314 315 313 315 313 314 314 314 313 313 312 312 311 311 310 309 308 307 308
286 284 286 282 278 280 277 279 276 277 277 279 278 280 279 280 284 285 286 286 287 285 287 290 290 288 287 287 288 289 289 290 291 291 290 290 291 292 293 294 293 294 298 300 303 304 306 308 310 313 314 314 315 316 317 318 318 319 320 320 320 319 316 315 315 314 310 311 309 309 308 310 309 310 310 312 309 310 311 311 312 312 312 312 312 312 312 312 311 310 309 308 308 307 307 307 306
284 284 282 280 276 274 273 272 270 271 277 279 279 281 279 282 281 287 289 293 294 295 292 289 289 289 290 291 290 290 290 291 292 293 292 292 292 293 293 293 294 294 294 296 297 300 302 305 307 310 313 312 312 314 316 316 317 318 318 319 319 317 315 314 315 314 310 312 310 311 311 312 309 312 310 311 309 307 308 309 308 306 306 306 308 309 310 310 309 308 307 306 305 305 306 305 305
286 283 286 281 277 272 270 270 273 275 278 278 279 278 278 278 283 283 289 292 292 291 291 290 288 288 287 287 288 289 290 292 291 292 293 293 293 291 292 291 291 292 292 293 294 296 297 301 304 306 309 309 310 312 314 315 316 316 316 317 317 315 315 314 314 314 311 311 310 311 311 311 312 310 309 308 303 307 306 306 304 301 299 301 303 305 307 308 307 306 305 304 303 302 303 303 303
284 283 283 280 282 279 275 274 272 271 273 275 276 279 280 283 284 287 287 288 288 289 289 289 290 288 287 289 291 292 293 293 291 292 293 292 291 290 291 292 292 291 291 292 293 294 295 298 300 304 308 308 308 309 312 314 314 314 313 314 315 313 311 313 312 310 311 312 310 311 309 309 310 308 305 303 303 305 305 304 303 300 299 299 300 302 304 305 304 304 302 302 299 300 300 299 298
283 284 283 283 285 285 276 274 276 274 272 274 275 279 282 282 286 291 292 286 289 288 288 287 287 287 286 288 291 292 293 292 292 292 292 292 290 290 291 292 292 291 292 294 294 294 295 295 296 299 301 302 305 307 310 310 311 311 312 313 313 313 313 313 312 310 310 310 311 310 309 307 305 304 304 304 303 303 304 304 302 300 298 297 298 299 300 300 300 300 298 295 294 294 293 293 293
284 280 284 285 285 283 281 275 270 272 273 274 274 279 278 279 280 284 283 288 291 291 290 288 288 287 287 290 291 292 291 291 291 291 291 291 291 291 291 291 292 293 294 293 293 292 293 294 295 297 298 301 302 304 306 309 310 311 311 312 313 313 313 313 312 310 309 309 308 306 304 303 303 303 303 301 302 301 301 299 300 297 296 297 297 296 296 296 295 294 294 292 291 290 289 289 289
285 282 287 287 278 277 277 275 273 268 268 271 271 275 277 281 284 283 284 283 288 291 292 288 289 288 289 290 290 290 288 289 291 291 291 291 291 292 292 293 291 291 291 292 294 295 295 293 293 294 297 299 300 302 303 305 308 310 311 311 311 311 312 312 311 310 308 308 306 305 305 304 301 300 299 299 299 298 298 296 297 295 296 296 295 294 293 293 293 290 289 287 288 289 287 286 286
286 286 285 284 281 279 275 278 272 273 273 267 273 272 280 283 282 285 289 289 288 289 288 289 290 289 289 289 290 289 289 289 290 290 291 292 291 291 291 291 292 293 293 292 294 296 296 296 295 295 295 295 298 302 303 306 306 307 307 307 309 310 310 310 308 308 307 307 306 305 303 301 301 299 300 299 297 295 294 293 292 293 293 293 293 291 290 289 288 288 287 286 286 287 286 286 284
282 282 281 283 281 282 279 278 277 276 269 268 272 272 280 282 286 288 290 291 292 294 293 290 291 290 290 289 289 288 288 288 289 289 289 291 291 290 289 289 291 289 289 290 295 298 298 297 297 298 300 301 302 303 304 305 305 306 305 306 306 307 307 307 306 307 307 306 304 302 302 301 298 298 296 295 294 293 293 292 291 291 292 291 290 288 287 287 287 286 286 285 286 286 285 283 283
287 286 283 285 281 277 277 277 277 272 274 269 268 276 282 282 286 291 290 291 292 293 293 290 289 289 289 289 288 287 287 287 287 288 288 289 289 289 287 288 287 288 290 292 296 298 298 298 299 299 301 302 303 303 304 304 304 304 305 305 304 305 306 305 305 305 304 302 300 300 297 296 297 293 294 293 292 291 291 291 291 290 289 288 288 288 287 288 287 286 284 284 284 285 284 283 283
Wind_Speed
4 3 1 2 3 2 2 6 1 3 3 0 0 0 2 0 1 1 1 1 1 1 1 1 3 4 1 4 8 3 1 7 6 8 4 1 1 5 4 8 9 6 6 5 5 4 4 6 8 7 8 7 9 11 10 12 12 12 11 11 10 10 10 12 13 12 12 13 14 14 13 13 13 14 15 14 15 14 15 15 15 14 14 14 15 16 16 17 17 17 16 16 16 17 17 17 17
2 2 2 0 0 1 1 2 4 3 6 3 2 1 2 1 1 3 6 2 2 1 2 7 7 6 8 10 8 3 2 2 4 1 1 1 5 4 5 8 9 10 5 4 5 4 3 4 7 6 9 9 9 11 9 10 11 12 11 10 10 10 11 14 13 13 14 14 13 14 13 11 12 14 14 14 14 14 15 15 15 14 14 14 13 15 16 16 16 16 16 16 16 16 17 16 16
2 2 1 3 3 5 2 4 1 1 3 0 3 5 1 2 4 3 5 3 3 5 4 5 3 3 1 3 2 1 2 1 3 2 4 5 10 5 9 8 7 8 7 4 5 4 4 5 6 6 9 10 9 9 9 10 11 11 10 9 9 9 11 13 12 12 13 13 14 14 13 12 13 13 13 14 13 13 13 15 14 14 14 14 13 15 17 16 16 15 15 15 16 15 16 16 16
2 4 2 3 2 4 1 4 4 3 0 3 3 3 3 4 5 4 3 3 6 4 1 0 2 1 1 2 1 1 2 1 1 4 7 7 1 7 9 9 7 6 5 5 5 4 4 5 6 7 8 10 10 9 9 9 11 11 9 8 7 11 14 13 12 12 11 12 12 13 12 11 12 12 12 12 12 13 14 13 14 13 13 13 14 14 15 16 16 15 15 15 17 16 15 16 16
1 1 1 3 3 2 2 1 4 2 2 4 0 4 4 4 4 3 1 3 5 4 0 1 3 1 1 3 0 1 2 1 4 1 3 2 4 7 9 9 7 6 5 5 5 4 4 6 6 5 8 11 13 10 9 9 10 11 10 9 8 8 10 12 12 11 10 11 12 12 13 12 12 12 13 13 12 13 13 13 14 13 14 13 13 14 16 16 15 15 15 15 16 16 16 15 15
4 1 4 2 1 2 4 1 1 0 4 5 1 1 4 6 6 5 4 4 4 3 2 1 3 3 1 1 1 1 2 3 4 0 3 4 8 9 10 8 8 6 5 5 4 4 4 6 5 6 8 11 12 10 9 10 9 12 11 10 8 9 11 11 11 11 11 14 13 13 11 12 14 13 13 13 12 12 13 13 13 14 13 12 12 12 14 14 14 14 14 15 15 15 15 15 14
1 3 5 4 2 4 3 2 1 3 3 6 2 2 6 4 5 7 4 2 2 1 3 1 3 4 4 1 1 0 2 1 4 2 4 6 9 9 9 8 8 8 6 4 4 4 4 6 7 7 4 7 10 10 10 10 8 9 11 10 9 6 9 11 11 10 10 11 12 12 11 11 12 13 13 13 12 12 13 12 13 13 12 12 11 12 13 15 15 14 15 15 15 15 14 13 13
2 2 2 2 1 4 1 0 2 5 1 5 1 2 3 6 5 5 7 3 2 2 0 2 2 4 1 2 2 1 3 1 1 8 10 8 8 9 7 8 8 8 7 4 4 4 5 6 6 4 3 4 10 9 9 9 8 4 9 11 9 8 5 8 11 11 13 13 11 11 10 11 12 11 11 11 11 11 11 12 12 11 12 12 11 11 14 13 14 14 14 14 15 15 14 13 13
5 7 1 4 1 3 2 1 2 2 5 2 5 5 2 2 3 5 5 2 1 0 3 4 3 3 3 1 1 2 3 2 3 11 11 10 9 9 6 8 9 8 8 6 4 4 4 4 5 4 3 4 8 9 9 9 7 6 9 11 9 8 6 7 11 12 13 12 11 11 10 10 11 11 11 10 11 11 11 10 11 11 11 11 11 10 11 13 13 13 14 14 15 14 13 13 13
2 2 1 2 3 1 3 4 0 1 2 2 2 1 3 3 3 2 4 0 2 5 4 1 0 1 3 3 1 1 1 0 7 12 11 11 10 9 8 7 7 10 9 6 4 4 4 5 6 5 4 5 5 7 8 8 9 6 9 9 10 8 7 7 8 10 11 10 9 9 9 10 11 10 10 11 10 11 11 10 11 11 11 11 10 10 10 11 12 13 13 14 14 14 13 13 12
1 5 2 3 2 1 2 3 3 4 1 4 4 5 3 4 4 1 0 1 1 4 1 1 3 4 4 2 3 3 3 3 10 12 13 12 10 9 8 7 8 8 10 7 5 4 4 4 6 6 4 5 6 5 6 8 9 7 9 9 9 9 7 7 8 8 8 10 9 10 11 10 10 10 10 10 10 10 10 10 10 10 10 10 10 9 9 11 12 12 13 13 13 13 13 12 12
1 2 2 3 1 5 3 2 3 7 7 2 1 1 3 6 2 2 1 4 3 1 4 4 2 5 5 0 2 1 1 6 5 9 10 12 10 9 8 6 7 6 8 8 6 5 4 4 4 6 6 6 6 6 5 8 9 8 8 9 8 8 7 6 7 7 7 9 10 9 12 11 10 10 9 9 9 9 9 9 9 10 10 10 10 9 9 10 11 12 12 12 12 13 13 12 12
3 1 5 3 1 1 1 0 2 3 4 3 4 1 4 6 4 4 3 1 1 3 4 7 3 2 3 4 3 3 3 9 3 7 10 10 9 8 7 7 7 6 7 7 7 6 5 3 4 4 5 7 6 6 7 6 7 8 8 8 6 6 6 7 7 7 7 9 10 10 11 11 10 9 9 8 8 9 9 8 8 9 9 9 10 10 9 9 9 10 10 10 11 12 12 12 12
3 4 4 2 2 2 3 1 1 1 3 1 2 1 4 4 4 5 5 4 4 5 2 3 5 3 1 1 2 3 6 7 4 7 7 8 8 8 9 7 7 6 7 9 8 6 5 3 3 3 4 4 4 5 6 7 6 7 8 7 6 4 5 4 5 8 8 8 8 9 9 9 9 9 9 10 9 8 7 6 7 9 9 9 9 9 9 8 8 8 8 9 10 11 12 12 12
1 2 5 4 1 1 2 1 1 1 2 1 1 5 2 1 4 4 8 6 7 3 1 1 4 0 4 7 4 8 8 9 8 7 8 6 8 9 10 8 8 6 7 7 7 7 6 5 4 3 3 4 4 4 4 4 7 7 8 7 6 4 3 6 6 7 7 7 8 8 9 9 9 9 9 9 8 7 7 7 8 7 9 9 8 8 8 7 7 7 8 9 10 10 11 11 11
4 4 3 2 1 2 2 2 1 2 4 2 2 2 5 0 2 5 4 3 1 0 1 3 0 2 1 7 2 4 8 9 9 8 9 9 8 7 9 10 9 8 7 7 7 7 7 6 4 4 3 4 4 4 4 4 5 7 7 7 6 5 4 5 6 7 7 7 8 8 8 7 7 6 9 6 8 7 7 5 6 5 7 7 7 7 7 7 6 7 8 9 10 10 10 9 9
3 3 0 2 2 2 3 3 5 2 4 3 3 1 6 4 1 0 1 1 3 3 1 0 2 2 3 3 2 3 9 10 9 10 9 9 9 8 7 7 7 8 7 8 7 8 7 6 5 4 5 4 4 4 3 4 4 6 6 8 8 6 6 5 6 7 7 6 6 7 7 5 4 4 4 4 6 4 6 7 5 6 8 7 6 6 6 5 6 6 7 8 9 10 8 8 9
2 1 4 1 3 4 4 5 8 1 1 4 0 2 2 3 1 1 1 4 2 0 2 3 3 3 3 5 2 2 10 13 12 13 10 10 9 10 10 8 8 8 8 8 8 7 7 6 8 7 5 6 5 4 3 3 3 4 4 4 4 5 6 6 4 3 4 3 5 4 3 4 3 3 3 5 4 4 4 6 6 6 6 6 5 5 5 5 5 5 6 8 9 8 8 5 5
2 2 2 7 5 4 6 3 5 1 3 3 2 1 2 5 6 3 3 1 1 0 4 1 4 5 3 1 5 7 11 12 13 13 13 14 13 15 11 9 9 9 10 8 8 9 7 7 7 8 7 6 6 5 4 3 4 3 3 3 3 5 5 4 4 3 3 3 3 3 3 3 3 3 3 3 3 4 4 5 5 5 5 5 5 5 5 3 6 7 8 8 7 8 5 4 3
1 3 3 4 7 2 4 3 2 6 1 3 3 1 3 2 3 1 3 3 1 7 6 2 3 6 1 3 6 7 9 12 12 14 13 12 11 15 12 12 10 8 9 8 9 7 8 8 8 7 9 8 6 4 4 4 3 3 3 3 2 3 5 4 4 3 3 3 3 3 3 2 2 2 3 4 4 3 3 4 4 5 5 5 6 4 5 6 6 7 7 7 4 3 3 3 4
1 2 3 2 2 1 2 6 4 4 3 1 1 0 2 2 4 2 4 4 5 7 7 10 12 10 6 6 9 8 10 11 12 11 12 11 10 11 11 12 10 10 8 7 6 9 10 8 7 7 7 7 7 6 7 4 4 3 3 4 2 3 3 4 4 4 3 3 3 3 3 3 3 2 2 2 2 2 3 2 2 2 2 2 3 2 2 2 3 3 4 4 3 3 4 3 4
2 3 1 2 1 1 3 5 5 2 3 1 0 1 4 1 0 3 9 8 10 9 9 8 6 7 12 12 11 9 11 12 13 12 14 14 15 11 9 7 5 4 5 7 8 8 9 8 7 7 7 9 8 7 7 6 6 5 5 4 4 2 3 4 3 4 3 3 3 3 3 4 3 2 2 2 2 1 3 2 1 1 1 1 1 1 1 1 2 2 2 3 3 3 3 3 2
2 2 2 2 2 2 1 1 1 3 2 3 1 4 1 5 1 1 5 11 2 2 2 9 6 7 8 10 12 10 12 13 14 15 15 15 14 14 11 9 8 8 6 7 6 5 7 8 7 7 9 7 9 6 6 6 7 5 5 5 5 4 3 3 3 3 4 3 3 3 4 3 3 3 2 2 2 1 2 2 1 1 2 1 1 1 0 1 1 1 2 2 2 3 4 3 3
2 3 3 2 2 3 1 2 4 1 7 3 3 1 2 3 6 0 5 7 1 4 3 3 6 7 7 11 13 16 16 16 17 16 16 17 18 16 13 11 8 7 8 9 8 7 7 10 8 8 8 8 8 8 8 7 7 7 6 4 5 4 4 5 4 4 3 4 3 3 3 5 5 4 4 3 3 1 2 1 1 1 1 1 1 1 1 0 0 0 1 2 3 3 3 4 4
2 2 2 4 1 3 4 3 3 2 5 1 2 2 2 6 4 1 7 9 5 4 3 4 6 8 6 10 13 11 12 11 11 10 6 7 9 9 9 8 9 8 10 9 8 8 9 9 9 11 10 10 8 8 8 6 6 6 6 7 7 5 6 5 5 4 4 4 4 4 3 4 3 4 4 4 3 3 2 1 2 2 1 1 1 1 1 2 2 1 1 2 2 3 3 5 2
4 3 0 3 5 5 5 3 1 0 0 2 2 4 2 3 2 3 11 3 4 3 4 4 5 7 9 12 13 12 12 13 11 10 12 8 7 10 11 10 9 10 10 9 9 9 8 9 10 12 10 10 8 9 8 8 7 7 7 7 6 5 7 5 5 5 4 5 4 4 4 4 5 5 4 3 4 4 4 2 2 2 2 2 2 3 2 2 3 2 2 3 3 3 4 5 3
3 1 3 3 8 6 2 0 1 1 1 2 4 1 1 1 3 8 1 1 2 4 4 2 5 9 10 9 10 10 12 13 15 12 5 5 7 11 11 10 10 11 10 10 9 8 7 9 9 10 9 8 7 9 7 7 7 7 6 5 5 7 6 5 5 4 4 5 5 5 4 4 4 4 4 4 4 4 4 3 4 2 2 3 3 4 2 3 2 3 3 3 3 3 4 3 3
3 2 0 4 4 6 4 3 4 0 1 4 4 2 1 2 0 10 2 1 2 5 3 6 5 5 7 8 9 9 9 10 7 6 12 11 11 11 12 12 12 11 11 11 9 8 8 10 10 10 10 9 8 9 8 7 8 8 7 6 6 6 5 6 6 5 5 5 4 5 5 5 5 4 4 4 4 5 4 4 3 3 5 3 4 3 2 2 3 4 3 3 3 2 4 4 2
1 3 5 3 5 11 1 3 1 2 2 4 5 1 0 1 6 8 0 1 3 4 4 3 6 5 5 5 5 6 10 7 5 8 12 12 10 9 13 12 12 12 9 10 10 9 11 10 10 10 10 9 10 10 8 8 7 7 7 7 6 6 6 6 7 7 6 5 4 5 5 5 5 5 5 5 5 5 4 3 3 4 5 4 3 3 3 2 2 3 4 1 2 1 3 5 3
0 3 2 3 2 7 9 1 0 3 2 4 1 5 5 8 13 4 0 4 4 4 4 5 5 5 4 5 6 7 4 4 8 12 11 10 9 9 11 9 10 11 9 7 8 11 9 7 8 8 10 10 11 9 8 7 7 7 6 6 6 6 6 6 7 6 6 5 5 6 5 5 5 5 5 5 5 5 4 5 5 5 5 4 4 4 4 4 4 4 5 3 4 4 4 5 3
5 1 2 3 1 6 2 0 0 2 2 2 1 4 6 6 11 3 3 4 6 5 5 5 6 5 5 6 6 8 7 7 11 10 8 8 7 7 9 7 9 9 7 7 11 12 9 9 8 7 9 10 10 10 10 8 7 7 7 6 6 7 6 6 6 6 6 6 6 6 6 6 6 6 5 5 5 5 5 5 5 6 5 4 5 5 5 4 5 6 4 5 5 4 4 5 4
1 2 7 0 6 4 5 2 3 5 1 2 4 4 8 9 9 2 1 4 5 6 6 6 5 6 6 6 7 7 9 7 6 6 8 9 7 9 9 10 8 9 11 10 10 8 9 9 8 9 9 11 11 11 9 9 8 8 7 7 6 7 6 7 6 7 6 6 6 6 6 6 6 6 6 5 5 5 5 5 6 5 5 4 4 4 4 4 4 5 5 4 3 5 4 6 3
3 5 1 4 3 3 5 3 2 3 1 0 5 5 3 5 5 2 0 6 5 6 6 6 7 7 6 7 7 7 6 7 6 9 10 9 10 9 9 9 10 11 10 9 10 8 9 9 9 10 11 12 11 10 9 9 8 8 8 7 8 8 8 7 6 6 6 6 5 6 6 6 6 6 6 6 6 6 5 5 6 6 4 4 4 3 4 4 3 3 3 3 3 5 3 5 5
6 0 6 2 3 2 5 3 1 1 3 2 1 3 5 3 7 4 2 4 4 5 8 7 5 5 6 5 5 7 7 8 11 12 14 11 10 9 9 8 9 8 9 10 9 10 11 9 9 10 9 10 10 10 10 9 8 8 7 7 7 8 8 7 7 6 7 6 6 6 6 7 6 6 6 6 6 6 6 6 5 5 5 4 4 4 5 2 2 3 4 4 4 3 5 5 6
9 5 4 3 0 2 3 1 2 3 0 4 1 4 7 8 9 7 1 1 4 7 7 4 4 5 6 6 6 7 8 9 14 14 11 9 9 9 8 8 8 8 8 9 9 9 8 8 7 9 9 9 9 9 8 8 7 7 6 7 7 7 6 6 6 7 6 6 6 7 7 6 7 7 7 7 6 6 6 5 5 3 3 5 5 4 3 3 4 4 5 5 0 2 4 4 4
5 4 3 1 2 2 1 4 3 1 2 4 4 6 7 11 11 12 2 1 5 6 4 5 6 6 5 7 7 7 9 13 15 9 6 7 9 10 10 8 8 7 8 8 10 9 10 8 7 8 9 9 7 7 7 7 7 8 8 6 6 8 7 6 6 6 6 6 6 7 7 7 7 7 7 7 7 6 5 6 6 4 5 5 5 4 4 3 5 4 5 4 4 2 4 5 3
6 4 3 1 2 4 3 3 3 2 2 5 6 5 7 8 9 13 0 0 2 4 6 7 7 7 7 7 8 9 10 15 8 5 8 9 10 10 9 8 9 8 8 9 10 11 11 12 10 12 10 8 8 8 8 8 9 8 7 10 11 8 6 6 6 6 6 6 6 7 7 7 7 7 7 7 7 6 6 5 6 4 4 4 4 6 6 4 4 5 3 3 3 2 3 2 2
5 6 3 0 2 3 2 2 3 3 3 3 1 2 8 11 11 12 1 1 7 7 7 7 9 9 8 7 9 10 13 5 6 7 5 7 9 10 9 10 9 11 12 11 13 13 12 11 12 13 8 9 10 10 9 9 9 10 8 9 6 6 6 7 7 5 6 5 7 7 7 6 7 7 7 7 7 7 7 5 5 7 6 5 5 4 4 5 6 4 3 2 2 4 3 1 3
3 2 3 2 2 3 8 1 3 3 1 7 2 3 7 9 12 13 5 7 7 7 9 10 9 8 7 8 10 11 6 9 7 9 7 8 9 9 9 10 11 13 13 14 13 11 12 12 13 11 10 10 10 10 9 10 8 8 9 6 9 5 5 7 7 7 7 8 8 8 7 7 7 6 6 6 7 7 7 7 6 6 6 6 6 5 5 4 5 4 3 4 2 2 4 2 3
3 4 2 3 2 2 5 2 1 1 2 3 1 5 8 8 7 12 8 8 7 8 7 10 7 8 10 12 10 7 8 10 12 12 10 10 9 8 7 9 12 12 12 10 10 13 11 12 12 12 10 10 10 11 11 10 9 7 7 6 6 8 6 5 6 5 6 7 8 6 6 6 6 6 6 6 6 5 5 6 6 4 5 3 4 4 4 6 4 3 4 5 4 4 2 4 3
2 3 3 2 1 2 2 4 9 4 1 1 4 7 8 7 9 9 3 1 4 8 5 6 8 8 9 6 5 7 11 11 12 11 8 8 8 11 14 13 8 10 11 12 12 13 11 14 13 12 11 11 10 10 11 8 5 5 4 2 2 2 1 3 4 6 6 6 5 6 6 5 6 7 6 6 6 6 6 5 5 5 4 5 5 5 5 7 5 5 5 5 5 5 4 3 0
2 3 5 3 2 3 3 4 8 6 5 2 1 4 7 4 5 9 9 5 5 3 3 9 11 8 6 9 13 10 9 9 12 13 11 8 10 8 5 6 10 11 12 14 13 14 13 11 11 11 11 10 11 10 10 9 9 9 8 8 7 6 8 7 9 10 6 6 6 3 5 7 6 6 6 6 6 6 6 6 6 5 5 6 5 5 5 4 5 5 6 5 4 4 5 2 1
7 6 9 6 6 4 1 6 3 4 2 1 1 4 7 6 5 4 4 5 9 8 4 10 9 8 7 10 12 12 12 12 10 10 9 6 8 7 8 10 12 12 14 11 10 12 12 11 11 13 12 11 10 10 10 10 10 9 12 12 11 11 11 9 6 4 5 5 4 5 6 5 6 7 6 6 6 6 6 6 6 7 6 4 4 3 4 5 4 4 4 4 4 3 3 3 4
4 3 11 7 4 3 3 4 3 6 3 4 2 2 5 7 9 5 2 4 8 10 9 8 10 9 10 10 12 12 12 11 11 11 10 8 8 10 13 13 11 15 12 8 10 9 11 13 12 12 10 10 10 10 11 11 12 11 10 11 11 11 11 10 7 5 4 6 7 7 5 5 5 5 6 6 6 6 6 5 5 4 4 4 4 4 3 2 2 2 3 3 3 4 4 4 2
5 4 10 9 7 6 5 2 3 2 3 9 1 1 2 5 7 4 1 5 7 9 10 9 9 10 10 11 12 11 11 10 7 10 11 11 12 12 11 10 11 10 7 10 10 10 10 9 9 8 10 10 9 10 11 11 11 12 12 11 11 9 8 5 4 4 6 5 6 4 5 5 5 5 5 6 6 6 6 5 5 4 4 4 5 4 3 4 3 4 4 4 3 3 3 3 2
5 4 5 5 5 2 2 3 1 2 1 11 4 0 3 9 5 5 2 2 6 8 10 10 10 10 9 9 9 8 7 7 6 9 11 10 9 8 7 5 5 8 6 6 6 5 6 7 9 10 11 10 10 11 11 11 12 10 11 11 12 10 6 3 5 6 5 5 6 5 4 4 4 4 5 5 5 5 5 5 5 5 5 4 3 5 6 4 4 3 4 5 5 3 2 3 2
5 7 5 4 3 2 3 2 2 1 7 7 1 3 3 9 6 9 6 6 6 7 7 7 7 7 8 7 9 8 6 6 7 7 9 10 6 5 4 8 7 4 5 6 7 8 7 8 10 11 13 10 10 11 12 13 12 12 12 12 12 11 8 7 6 6 5 4 6 5 5 5 5 5 4 4 5 6 6 6 6 5 5 6 5 4 5 6 5 5 4 5 6 5 4 4 5
8 2 4 5 1 3 2 1 2 3 9 1 1 1 4 8 4 6 7 4 3 5 6 10 11 11 7 5 6 6 5 5 6 5 9 7 6 7 4 7 6 6 4 7 8 7 8 9 9 12 10 10 10 11 11 12 11 12 12 12 12 11 10 9 11 10 9 9 7 7 5 4 4 4 4 5 4 5 6 5 5 6 5 5 6 4 3 2 5 5 5 5 6 5 5 5 5
4 4 6 7 2 3 3 2 5 9 5 1 0 2 1 16 10 6 6 8 6 6 11 14 10 8 7 6 8 7 6 5 6 7 7 6 7 7 6 7 5 5 8 7 8 8 7 7 10 12 13 11 11 11 12 13 12 12 12 12 11 10 10 10 10 9 8 8 7 7 7 6 5 5 5 6 5 6 6 6 6 6 5 4 4 4 3 4 5 5 6 6 5 5 5 6 6
6 7 6 7 5 4 6 2 1 4 5 4 1 1 6 5 6 13 13 15 16 16 12 10 10 12 11 9 6 7 8 6 7 6 6 7 6 5 5 5 5 5 5 6 5 6 7 7 8 10 12 9 8 9 11 11 12 12 11 11 10 9 9 9 9 9 9 8 8 9 9 9 9 9 8 8 7 6 4 5 5 4 4 6 5 5 5 4 5 6 6 6 6 5 6 7 7
11 4 8 6 3 4 4 3 7 6 7 1 2 2 8 3 4 2 12 10 7 7 8 6 6 7 6 6 9 10 11 11 5 7 8 6 5 4 4 3 3 4 4 5 4 5 4 6 7 9 8 8 9 10 9 11 11 10 9 9 9 7 9 9 8 8 9 9 7 9 8 8 9 7 8 6 6 5 5 5 5 7 6 6 5 5 6 5 6 6 6 6 5 4 5 6 5
4 4 5 4 8 5 3 5 4 3 2 3 3 7 2 4 4 8 6 10 12 10 11 6 11 6 4 6 8 9 9 8 4 6 6 5 5 4 3 4 3 3 3 3 4 5 5 7 6 8 10 8 8 9 9 10 10 8 8 9 9 8 7 7 6 6 7 9 9 10 9 9 7 7 5 7 6 6 7 7 6 7 6 6 5 5 5 6 6 7 5 6 5 2 5 6 5
6 7 11 8 5 5 3 2 1 2 2 9 2 8 7 7 8 10 13 6 11 6 8 5 7 5 3 7 9 9 7 5 4 5 5 4 3 3 4 4 3 3 3 5 5 5 6 6 6 7 7 5 7 9 9 8 8 8 8 8 8 8 9 10 9 9 9 8 8 8 8 7 7 7 7 7 8 5 6 7 8 7 6 6 6 5 6 6 6 6 6 6 6 5 7 6 5
8 7 8 3 2 4 4 4 1 2 7 8 3 10 4 3 11 3 3 13 15 13 10 4 4 4 4 8 8 6 6 5 5 5 4 4 4 4 4 4 4 4 4 3 4 2 3 4 5 6 6 7 6 6 7 7 8 9 8 9 9 10 10 9 9 9 8 8 6 6 6 7 7 7 8 7 7 7 6 7 8 7 6 6 7 6 6 6 7 7 7 6 5 7 8 6 5
7 7 6 9 4 5 2 2 5 1 3 6 3 2 7 10 11 4 4 3 11 14 13 2 6 5 6 7 9 6 5 6 6 4 4 3 3 4 4 4 3 3 2 2 2 2 2 3 3 4 6 6 6 5 5 5 6 7 7 9 9 9 8 8 8 8 9 9 9 8 9 8 8 8 8 8 8 7 7 6 7 7 7 7 6 6 7 7 8 8 6 7 5 7 8 7 4
1 3 4 1 4 2 4 7 3 5 7 1 8 4 15 5 7 9 12 9 10 10 9 10 7 5 5 6 6 5 6 5 5 4 3 4 4 4 3 3 3 3 2 2 2 2 3 3 3 3 3 2 2 3 4 5 5 5 5 5 6 7 8 8 8 9 8 9 10 10 9 9 9 8 8 8 8 8 8 8 6 7 7 6 7 6 6 7 7 7 7 7 5 7 8 7 5
3 3 4 1 1 2 4 1 5 5 3 3 5 8 8 3 8 10 11 12 14 15 17 8 5 5 6 5 6 6 6 6 5 4 4 4 4 4 3 2 3 3 2 2 2 3 3 2 2 3 4 3 4 4 5 5 5 5 6 7 6 6 7 6 8 9 10 9 8 8 9 9 9 8 9 9 8 8 8 8 8 8 8 7 8 6 5 7 7 7 6 7 6 7 8 6 6
10 11 11 12 9 5 6 9 3 1 2 5 1 14 8 3 2 10 11 11 11 11 16 5 2 5 5 5 5 5 6 5 5 5 4 4 4 4 3 2 1 1 1 1 2 2 2 3 4 4 4 4 5 5 5 6 6 6 7 7 7 6 8 8 8 7 7 8 8 8 9 9 9 7 8 10 9 8 8 8 8 8 7 7 7 7 6 7 8 9 7 6 7 7 8 6 5
Wind_Direction
330 351 292 128 66 90 49 359 151 322 58 292 350 30 180 221 204 86 158 3 141 248 219 64 81 121 204 203 180 168 205 132 197 134 214 231 259 119 127 130 133 128 123 130 119 118 124 127 124 121 123 111 102 95 95 102 98 96 95 96 101 105 103 98 96 94 90 91 98 91 87 92 89 77 76 73 74 79 81 82 82 82 83 83 86 90 83 75 73 75 78 77 76 75 75 78 79
325 357 43 356 18 52 274 116 94 352 38 54 230 113 249 293 82 209 171 190 201 119 109 98 87 90 47 80 106 133 28 340 171 137 97 168 108 101 144 138 141 131 126 122 114 111 109 114 116 130 137 129 125 114 110 111 109 107 104 103 106 110 109 102 101 101 99 97 93 89 88 81 85 86 83 83 84 83 83 83 81 80 83 83 84 82 80 77 76 78 82 82 81 81 82 79 77
14 38 12 27 21 72 83 33 330 64 68 352 274 212 331 135 187 212 209 212 164 139 128 93 84 54 14 4 41 66 207 82 117 208 110 129 142 167 147 141 132 123 124 119 111 110 112 116 123 137 133 128 134 130 130 120 114 109 110 111 117 124 112 105 104 98 97 96 90 91 90 95 88 85 91 92 87 82 87 83 81 81 84 92 92 88 79 79 78 79 82 88 87 82 82 80 77
81 43 171 72 267 37 50 24 89 122 78 217 315 280 190 179 220 197 239 223 154 125 76 200 74 255 108 48 184 94 77 118 171 144 134 166 183 142 144 134 120 118 110 113 116 113 114 124 130 126 130 138 136 133 131 128 125 118 110 114 111 113 109 111 103 97 100 100 101 92 92 86 88 92 87 82 91 94 83 86 92 93 89 93 97 86 81 80 77 77 81 85 83 80 78 80 78
67 354 87 105 101 6 99 123 137 112 358 203 161 274 259 205 189 192 196 202 169 136 134 138 77 340 200 136 178 152 215 78 134 101 106 86 121 142 134 127 128 119 115 117 114 118 124 131 136 137 147 142 137 129 134 134 135 124 119 114 114 112 111 106 104 109 110 107 100 103 101 103 99 98 95 95 88 81 85 84 84 83 87 88 90 94 87 82 81 81 80 83 84 81 79 78 78
60 41 360 79 41 164 59 58 33 239 212 148 176 248 225 210 167 184 157 174 217 247 209 146 165 195 21 321 187 106 185 136 180 116 139 134 134 139 137 132 128 121 121 113 114 120 129 131 129 139 134 133 133 131 136 143 139 125 128 121 122 120 123 115 119 120 109 106 109 103 101 93 91 93 96 92 90 85 84 82 83 88 88 92 96 90 85 83 81 82 83 84 84 85 85 84 83
263 41 2 28 29 50 164 136 235 196 277 161 207 232 215 205 194 140 148 147 244 213 141 220 148 100 73 305 1 247 190 217 126 204 128 138 132 139 141 139 133 124 124 118 116 118 132 134 142 140 150 138 130 130 136 145 135 136 131 127 123 114 114 122 118 119 119 112 103 99 100 104 102 101 102 102 100 100 93 92 88 85 86 88 93 98 94 89 86 84 83 84 86 85 82 83 82
76 146 325 105 296 44 43 166 240 166 280 171 217 250 246 184 152 153 177 134 205 196 120 183 259 101 231 30 175 263 348 236 175 126 122 136 134 135 144 141 134 133 125 122 122 129 134 141 144 125 144 123 129 132 138 143 132 126 137 125 124 122 115 127 119 102 98 101 104 103 104 105 100 97 90 93 96 97 97 98 97 95 97 97 97 102 96 91 86 83 85 82 83 84 83 83 85
12 84 256 69 53 35 46 297 268 245 285 290 282 227 210 151 143 139 169 237 27 116 155 207 246 83 235 53 189 279 297 333 135 126 132 136 144 143 147 148 146 142 143 134 135 132 129 135 125 129 102 76 128 135 138 143 129 127 130 128 129 129 125 112 111 107 111 110 104 100 107 104 98 96 98 100 100 99 98 96 99 99 95 96 95 99 99 90 90 86 84 82 81 83 83 82 83
43 38 276 117 132 245 6 296 75 214 235 245 246 232 151 152 145 122 157 84 210 136 201 345 187 118 140 145 313 325 112 134 140 125 139 145 147 151 150 151 148 149 150 141 144 137 137 131 126 110 99 71 99 132 137 141 130 119 129 131 131 133 135 128 121 120 123 119 109 113 119 112 105 103 102 100 95 96 98 95 90 94 96 97 98 104 107 101 93 90 86 82 83 83 82 82 81
14 20 130 80 34 78 211 259 272 314 269 311 288 234 174 129 128 128 90 186 54 150 221 337 38 121 108 238 219 257 299 189 148 148 150 149 149 156 152 150 148 155 154 150 149 141 141 137 132 124 101 76 66 100 126 138 138 128 135 128 127 129 129 130 126 118 125 125 129 141 129 118 111 110 104 97 98 95 94 96 96 97 97 94 96 98 104 102 94 88 84 78 78 77 75 74 73
356 30 16 97 162 161 236 191 280 285 297 324 170 161 196 130 100 132 169 132 198 305 182 157 204 142 78 46 286 300 320 180 175 150 151 147 154 157 151 145 149 153 154 149 148 148 142 142 137 136 117 93 78 67 111 134 133 132 124 124 129 129 133 132 114 108 117 93 83 77 125 117 111 106 104 96 93 100 100 98 99 98 100 100 99 101 107 104 96 88 82 76 78 78 74 71 68
103 93 81 94 213 132 163 298 274 311 323 280 177 202 134 118 184 191 166 112 116 121 285 208 123 82 140 182 257 317 167 198 184 156 152 153 153 151 147 142 150 153 152 150 153 152 152 143 146 138 130 116 95 83 89 90 135 142 128 128 126 126 136 137 134 138 108 94 86 85 86 95 103 105 107 108 98 90 85 89 98 103 101 104 105 106 110 105 94 89 77 73 74 76 76 71 66
114 183 128 187 56 119 146 232 327 350 286 251 275 138 164 134 228 172 132 151 209 172 246 188 136 141 96 3 270 226 215 184 170 157 150 148 144 146 150 149 149 154 153 158 159 157 159 150 146 141 132 122 115 96 96 100 99 113 116 112 109 110 135 140 102 82 83 78 85 91 92 97 103 102 95 93 88 69 50 52 86 97 102 102 101 101 96 97 92 84 75 66 67 70 73 72 65
97 150 83 106 72 90 241 100 243 143 263 219 218 139 163 234 118 143 163 169 236 212 320 88 151 90 218 156 264 206 196 177 154 151 144 139 143 146 154 151 149 150 158 167 166 156 168 155 140 144 138 132 127 114 110 98 99 107 115 118 119 125 118 77 99 99 102 96 90 88 88 93 96 97 99 94 84 76 59 46 50 79 95 94 93 97 100 97 89 77 66 60 56 55 58 62 64
118 90 79 117 175 163 247 183 132 89 264 198 328 299 142 68 163 125 248 150 217 319 134 189 102 205 261 169 237 214 163 151 147 145 142 145 143 146 154 157 157 161 167 169 170 171 172 170 154 152 152 148 138 136 127 117 119 122 130 132 133 132 103 98 93 99 99 100 102 98 96 93 92 99 103 98 96 86 75 66 61 73 96 98 97 98 98 103 87 67 60 57 53 46 44 45 47
94 75 167 49 204 171 228 170 147 232 257 274 285 234 162 199 211 220 56 83 123 183 315 262 211 36 205 214 314 232 140 135 137 146 149 146 145 153 158 155 158 164 170 174 180 180 178 174 168 161 166 158 145 145 137 132 122 121 134 141 143 143 126 115 100 93 95 95 99 101 97 95 104 106 99 104 100 98 94 78 63 56 63 65 82 94 94 89 69 58 53 53 52 44 39 39 41
57 97 114 206 203 150 206 174 189 172 355 319 342 275 152 203 127 197 116 33 69 355 249 307 308 250 264 278 304 161 138 142 154 155 164 156 157 164 171 171 162 172 174 180 189 182 177 181 187 178 167 159 137 139 143 121 132 142 135 141 144 144 134 123 115 110 103 100 102 98 104 110 110 112 113 112 111 111 101 96 83 76 72 56 50 89 101 82 64 54 47 45 43 41 38 33 16
88 110 123 225 172 235 154 198 178 112 297 243 235 185 232 235 143 219 147 275 85 191 263 31 323 296 338 60 112 139 148 151 162 169 164 170 171 176 170 165 169 170 183 182 186 184 185 178 187 186 188 162 159 156 146 132 151 149 154 157 153 146 147 140 140 123 122 124 109 106 106 115 128 130 133 134 131 122 120 113 104 94 85 68 69 52 63 75 47 50 44 41 38 38 34 30 20
187 122 226 256 208 243 214 189 181 203 191 292 305 283 133 256 173 121 202 162 90 201 206 280 261 237 228 133 138 152 156 164 170 173 175 173 178 181 166 173 176 181 182 181 180 179 181 182 186 183 190 179 163 158 143 147 157 160 162 159 144 153 149 152 151 146 139 139 134 122 121 120 119 122 119 123 116 108 103 106 107 99 86 70 72 57 40 37 37 36 33 29 33 27 42 23 9
193 104 184 231 187 229 216 190 221 211 165 262 209 67 171 271 211 157 167 122 244 254 230 188 201 208 179 171 157 165 163 170 176 182 180 181 182 186 189 186 183 180 178 167 171 180 186 184 183 186 190 186 178 167 174 167 158 152 161 176 163 172 157 156 159 159 159 156 149 140 134 127 114 100 100 92 93 108 104 90 80 69 69 61 45 62 44 19 29 15 1 15 22 14 10 9 13
137 215 181 159 143 286 248 207 180 139 187 147 341 150 235 88 78 177 160 184 222 213 227 222 216 174 156 167 172 169 170 176 182 183 187 183 186 183 189 193 187 174 157 182 186 177 182 184 185 184 184 191 191 184 184 172 167 179 181 178 166 172 176 172 169 169 174 174 167 154 133 124 122 110 118 116 98 105 131 132 105 91 71 84 41 65 47 34 32 35 21 1 344 350 6 351 359
257 303 240 170 203 264 332 260 233 139 112 151 153 225 91 167 218 152 185 211 231 294 251 198 191 176 174 157 153 170 178 184 187 190 186 190 190 194 192 188 181 177 171 193 184 182 177 184 184 178 186 190 195 187 187 178 190 192 192 185 176 184 172 182 190 187 188 179 176 166 156 157 150 143 146 146 164 118 171 176 168 115 139 122 42 88 53 44 36 29 15 343 321 344 332 335 335
109 230 6 343 151 219 200 269 150 183 135 220 203 51 195 158 222 109 201 235 155 345 304 202 145 133 143 154 176 176 183 187 194 194 191 192 190 192 188 187 188 184 188 192 189 187 178 190 186 178 190 188 192 190 189 190 195 196 197 177 193 177 179 194 194 194 180 188 187 183 179 172 169 170 179 166 187 139 216 215 154 164 154 136 139 116 136 278 233 46 6 318 331 338 329 313 325
271 275 358 291 343 246 274 259 259 194 225 188 139 167 238 191 196 99 245 236 267 353 44 106 127 133 155 170 178 187 189 196 198 198 195 202 203 196 192 193 188 189 197 195 190 190 193 187 184 192 192 188 190 186 192 190 191 195 193 196 201 187 198 198 191 182 191 188 188 184 178 182 183 182 183 195 155 192 202 207 193 224 193 202 142 183 178 223 257 229 261 280 312 308 313 293 297
197 226 174 308 295 306 295 280 247 184 301 137 122 239 278 249 213 262 248 257 222 113 74 104 134 145 168 184 186 184 190 197 197 194 199 187 186 192 200 197 192 198 202 195 193 197 195 188 189 197 194 193 187 185 195 192 192 196 196 198 194 180 203 194 180 197 198 184 194 190 190 187 189 187 191 187 175 204 204 190 196 222 214 203 174 222 212 196 237 269 288 293 295 292 299 282 317
145 173 221 240 287 321 315 348 295 305 212 169 179 225 179 235 132 260 13 327 131 106 115 131 160 178 185 186 192 196 191 196 196 194 173 176 188 197 201 199 200 203 197 203 201 200 195 191 195 196 195 190 183 191 190 193 187 198 195 188 184 198 193 188 196 201 198 201 196 184 189 192 188 191 190 189 198 201 201 190 210 197 231 219 200 232 197 215 221 228 236 244 251 268 269 289 299
129 173 303 260 274 266 263 278 273 291 291 162 170 226 259 301 90 240 205 330 110 138 159 166 188 199 198 198 194 199 204 209 199 177 196 188 196 195 197 200 203 202 203 205 202 199 196 198 198 196 195 191 192 194 191 194 194 200 194 187 198 193 184 202 205 203 211 206 192 188 188 192 190 197 192 193 195 198 203 205 194 183 228 210 204 215 219 221 222 243 245 245 258 263 284 283 252
199 167 234 294 338 299 253 287 1 140 261 154 169 94 285 218 217 244 199 80 111 139 171 204 204 211 211 213 211 207 213 203 193 206 211 208 202 196 202 199 197 202 208 204 202 197 202 197 198 198 194 193 198 198 196 198 197 196 195 196 196 189 190 197 204 210 212 206 194 193 193 191 193 197 198 197 198 199 198 194 195 218 229 205 195 198 206 219 236 262 268 273 283 285 279 273 232
17 52 114 0 343 274 271 355 50 152 253 145 161 266 260 234 237 227 238 116 102 119 181 204 217 218 214 211 211 223 222 197 211 216 215 212 207 204 208 199 198 201 199 198 195 208 201 200 198 195 195 195 197 201 198 199 199 197 196 198 194 189 193 196 207 209 206 205 196 197 194 192 195 198 189 201 191 194 190 190 200 224 227 206 191 185 205 196 214 215 237 208 235 220 244 262 255
201 146 76 226 125 259 299 150 245 191 186 132 94 230 278 272 262 249 208 159 146 195 217 212 215 218 216 210 215 220 225 216 221 225 228 228 222 215 215 206 201 201 190 193 201 203 193 197 193 202 194 198 195 202 200 201 198 198 196 198 198 193 195 200 206 206 201 203 194 199 198 196 196 194 191 189 196 191 190 198 205 224 212 193 201 205 206 200 196 220 217 205 227 228 234 261 261
22 122 232 28 196 291 295 144 173 206 4 76 122 276 236 262 264 199 222 179 159 207 218 214 218 223 219 215 218 224 226 224 239 241 231 230 223 222 211 212 202 198 202 201 205 197 201 200 196 201 194 200 198 200 200 200 200 200 199 198 199 197 199 202 205 205 203 196 192 198 199 199 197 197 191 184 189 196 197 202 217 217 209 196 216 204 187 203 208 220 221 221 228 261 262 276 252
4 213 309 207 108 257 333 253 226 129 118 14 179 218 319 296 295 345 1 168 180 212 233 216 216 223 226 224 223 228 240 245 243 235 231 222 226 223 218 213 206 207 204 201 202 199 205 204 199 204 200 202 202 200 201 200 198 203 203 201 200 196 202 204 204 204 203 197 193 199 196 196 200 197 195 190 195 194 200 208 216 210 187 193 205 196 208 228 211 224 277 244 222 254 262 263 283
226 94 205 201 165 186 217 318 251 210 135 247 258 225 233 265 281 310 2 161 162 207 237 234 223 221 224 234 239 234 234 237 238 233 230 219 224 224 224 219 214 208 208 207 204 201 206 202 203 205 206 203 202 201 200 200 199 199 202 204 204 205 205 203 203 199 204 200 196 202 196 195 196 196 196 196 202 199 200 206 208 194 179 179 200 182 218 207 219 204 254 236 214 215 263 266 275
187 167 179 226 235 184 286 180 273 121 29 200 252 242 269 263 269 279 310 184 169 222 236 260 248 232 228 224 230 235 237 238 240 234 229 221 224 224 223 222 219 214 212 207 205 208 209 208 205 209 207 201 204 203 202 201 198 203 203 203 210 216 214 209 200 203 203 199 202 202 198 195 196 198 197 195 200 198 198 201 200 201 218 177 180 189 208 207 207 207 217 256 177 219 244 270 264
144 140 161 108 196 258 201 262 308 296 273 249 226 221 242 251 267 274 246 177 186 240 282 270 254 245 234 225 227 228 231 240 243 236 224 221 222 219 219 216 218 217 217 210 209 208 209 210 206 209 210 202 199 200 191 200 200 203 207 208 217 217 214 209 205 207 198 205 203 199 201 199 196 198 198 195 200 198 198 199 202 187 186 162 173 182 212 205 217 225 240 229 261 268 225 247 239
121 96 91 196 356 305 300 281 296 348 327 247 239 255 247 254 240 263 2 48 276 280 270 252 249 245 237 233 229 232 231 235 247 227 219 219 222 219 218 211 217 216 217 212 211 211 208 207 199 214 206 196 192 192 195 197 204 209 212 212 216 211 208 203 210 209 205 205 197 202 203 201 198 198 199 192 200 200 201 196 192 190 203 202 197 211 208 214 215 207 203 185 218 292 286 206 229
107 104 81 49 102 322 265 293 313 326 178 299 4 255 261 261 266 263 221 312 267 239 244 259 254 242 240 232 241 237 237 272 268 252 230 223 220 215 208 210 208 212 217 211 212 211 208 206 208 215 201 197 200 197 195 199 204 205 202 215 213 206 200 203 215 206 208 201 200 203 203 198 197 198 196 195 199 195 198 198 201 202 196 211 213 206 202 211 220 215 190 232 166 213 249 200 192
74 108 117 54 305 232 284 289 333 320 126 260 333 277 261 250 254 265 213 224 246 235 210 231 233 250 244 239 242 245 245 251 254 244 226 219 219 214 205 209 212 215 218 213 213 207 207 209 212 211 203 198 203 199 194 204 203 205 200 203 198 209 213 206 213 207 199 203 204 203 196 193 194 198 196 198 197 196 200 201 210 224 209 196 198 207 216 233 226 217 176 209 240 210 240 216 181
111 96 99 173 233 58 235 266 45 317 187 276 310 320 281 279 264 262 244 213 236 245 230 243 229 233 235 232 228 238 246 250 249 241 225 220 214 210 207 209 213 210 217 214 209 212 211 213 210 209 205 199 201 202 202 206 202 197 205 196 197 195 193 199 204 202 199 201 210 196 194 191 188 196 197 195 200 199 199 203 206 202 214 198 209 213 209 229 227 201 192 212 219 247 204 256 189
145 143 110 117 190 216 156 289 327 299 331 47 303 296 285 254 265 281 275 250 285 274 272 274 260 238 248 279 296 228 231 233 245 253 237 218 209 211 206 211 205 211 213 210 205 208 210 210 207 205 205 205 205 201 201 198 181 180 167 98 113 146 32 143 195 216 204 196 193 192 195 178 189 198 194 197 196 204 202 203 204 209 203 212 203 209 216 224 221 211 192 201 199 219 254 238 270
235 201 163 172 168 228 267 309 352 347 334 350 65 330 289 290 274 243 267 332 297 284 281 255 251 246 244 250 248 248 242 239 236 244 237 222 220 226 218 210 206 213 215 215 207 210 207 207 201 204 207 207 206 201 193 185 192 188 180 191 188 196 212 198 204 211 187 191 198 156 173 190 195 198 195 196 203 203 203 200 199 204 216 210 197 212 226 222 222 200 195 199 203 208 232 254 244
190 220 166 175 204 189 266 292 19 302 298 294 80 217 280 326 305 262 287 325 287 291 274 267 269 259 239 235 241 242 235 242 240 250 252 235 228 216 220 211 212 213 221 211 210 213 209 205 200 202 206 206 202 197 187 186 196 199 198 202 204 206 214 222 211 181 180 184 161 178 187 187 192 195 199 198 200 204 205 198 200 217 214 188 179 200 228 228 209 193 180 177 200 182 175 220 216
215 202 163 184 200 166 254 260 201 243 271 292 65 159 255 285 267 269 276 301 288 298 287 266 264 259 245 238 239 237 238 236 236 238 242 234 232 212 220 216 209 215 215 204 215 209 205 207 201 202 202 203 200 195 191 190 196 199 202 209 210 213 210 216 184 187 172 164 180 194 191 195 194 199 198 201 200 199 203 201 202 211 195 195 171 183 192 210 163 141 162 169 161 162 166 176 205
213 193 161 186 189 175 231 233 239 229 346 279 331 355 298 249 272 297 328 275 272 272 269 270 264 256 249 247 247 243 242 247 239 247 246 234 227 224 227 220 219 220 206 205 209 208 209 208 206 203 203 199 199 193 194 195 198 198 202 206 213 220 214 201 158 158 165 169 180 184 192 195 192 202 205 198 201 195 194 196 192 192 180 172 154 140 142 137 162 152 135 125 136 138 152 130 122
262 156 103 95 97 92 161 205 245 291 266 261 262 147 249 272 267 305 339 234 271 261 261 254 248 247 252 259 267 265 265 264 255 248 255 252 239 236 235 250 245 221 213 209 209 198 202 197 202 200 208 200 195 195 195 197 199 198 204 208 212 212 194 157 160 166 168 170 176 182 184 177 180 188 203 199 187 184 176 169 164 163 152 148 151 152 131 134 139 135 137 123 113 107 76 115 130
115 110 84 54 52 78 41 92 124 19 253 272 192 248 180 291 223 207 213 223 199 240 276 268 257 263 268 258 258 268 271 268 264 263 263 263 264 254 240 227 230 226 209 198 202 199 193 195 200 204 209 199 194 196 192 199 198 200 208 207 209 209 191 173 167 172 158 159 174 171 175 183 180 187 180 190 179 164 159 152 147 156 146 135 123 115 142 150 138 118 106 97 95 102 104 106 98
131 126 129 97 29 38 90 343 72 211 258 336 268 157 163 236 296 256 230 261 233 224 250 269 277 268 258 265 268 265 265 270 276 273 271 272 282 262 250 248 235 224 202 206 204 194 195 198 196 206 208 200 196 194 194 200 197 203 208 206 207 206 185 185 189 184 177 177 175 174 171 156 178 167 173 160 162 155 147 145 145 135 119 123 127 134 140 128 115 111 100 99 101 104 112 108 102
94 97 109 135 218 115 260 128 231 215 226 224 123 176 359 238 235 276 263 251 267 216 224 239 252 277 282 267 270 272 264 277 280 276 277 277 259 256 241 241 237 224 213 206 203 197 199 197 197 201 210 202 197 192 196 198 198 203 203 204 207 199 192 192 190 185 180 176 171 160 162 173 162 166 181 169 170 163 151 140 139 136 133 127 126 125 135 123 116 110 111 100 102 103 106 106 99
145 150 160 146 170 170 210 230 346 323 297 255 152 128 268 280 294 223 243 259 243 251 245 241 243 249 262 276 283 290 282 264 267 267 264 264 262 262 253 248 234 235 224 213 206 198 199 200 201 204 214 198 199 197 200 199 204 203 200 202 202 190 193 186 188 184 181 179 172 173 176 175 175 182 175 180 170 160 149 138 129 110 117 123 130 133 128 131 121 111 106 107 103 104 102 101 106
192 137 160 179 139 162 198 184 208 221 218 231 268 84 234 96 249 251 231 247 288 267 267 252 253 254 263 277 283 278 278 275 252 257 254 255 260 255 261 248 243 234 228 220 210 208 195 205 201 208 212 204 196 202 200 205 206 202 200 201 196 186 186 186 188 182 175 177 179 172 179 173 177 178 176 162 152 152 135 123 128 116 104 102 119 122 120 112 108 101 99 103 104 111 106 110 107
204 173 77 141 223 129 166 204 151 219 260 279 207 210 189 187 265 282 213 259 267 271 273 271 268 263 252 281 268 264 261 270 270 262 267 260 250 262 258 257 246 241 238 229 216 202 199 211 208 211 211 204 200 200 205 205 205 198 196 194 194 184 182 180 181 181 182 179 176 177 177 176 174 159 150 139 153 145 137 126 121 110 102 110 112 111 107 104 104 106 100 98 73 48 96 81 70
210 118 206 204 176 141 89 45 13 83 36 256 135 289 278 303 291 265 278 254 269 253 252 254 275 284 281 264 262 260 259 273 277 259 263 271 285 263 244 245 246 235 232 219 213 202 205 206 211 221 226 224 207 205 204 200 200 193 196 192 184 181 181 184 183 182 178 180 176 177 170 166 144 150 147 150 144 136 131 129 122 118 112 111 105 100 102 107 110 111 118 109 96 85 75 79 83
108 187 212 134 109 111 145 218 354 179 224 264 116 242 295 311 284 318 314 259 262 273 261 272 274 286 278 252 257 267 278 274 269 264 261 263 269 277 275 256 244 235 231 240 246 241 234 225 211 215 220 220 221 211 208 201 196 196 190 191 188 187 185 185 179 177 172 163 162 148 131 138 156 153 146 145 139 133 126 125 121 118 115 113 117 114 114 117 112 101 96 82 98 105 92 77 47
149 195 185 140 235 238 299 113 241 150 265 269 291 279 258 211 246 336 331 258 255 274 290 311 275 255 251 280 282 283 296 297 284 276 272 270 258 257 258 259 272 279 300 294 314 287 269 257 245 231 227 227 220 213 213 212 203 197 192 190 185 185 184 179 176 169 164 165 163 161 161 152 135 140 138 138 135 130 127 123 122 121 121 120 118 120 118 115 110 101 82 94 98 103 98 88 51
66 83 104 330 103 154 139 195 176 123 250 27 286 47 261 161 215 201 241 263 267 258 256 271 272 285 274 267 276 294 298 287 290 282 273 269 270 260 260 273 292 290 276 243 218 203 234 237 223 234 267 262 209 204 203 206 202 190 185 181 187 181 176 169 165 161 168 170 166 159 147 145 151 143 141 138 135 135 134 128 127 128 123 120 118 114 118 116 106 111 122 107 115 110 102 101 89
117 117 172 172 81 254 113 96 148 185 194 203 277 300 263 230 194 184 217 223 242 256 268 248 259 266 270 275 284 294 290 286 279 276 274 269 274 288 299 287 267 267 258 242 190 197 203 184 215 216 205 200 197 194 186 195 176 183 169 175 170 165 165 162 162 169 166 163 154 151 152 144 134 141 137 134 134 137 136 134 134 133 129 131 126 121 122 120 114 116 107 112 115 110 111 114 113
170 171 189 180 137 151 169 239 49 94 151 232 229 263 265 266 167 195 199 226 229 240 256 238 228 268 255 264 274 257 282 277 262 265 256 260 265 275 289 292 283 254 277 237 225 178 180 190 193 189 200 197 193 188 191 176 180 172 177 170 171 169 162 159 162 159 151 146 146 145 137 131 132 134 137 134 134 135 135 135 131 128 128 128 127 130 138 129 126 118 110 116 121 120 116 123 115